Regional Weather Roundup
Issued by NWS State College, PA

Home | Current Version | Previous Version | Text Only | Print | Product List | Glossary Off
Versions: 1 2 3 4 5 6 7 8 9 10 11 12 13 14 15 16 17 18 19 20 21 22 23 24 25 26 27 28 29 30 31 32 33 34 35 36 37 38 39 40 41 42 43 44 45 46 47 48 49 50

000
ASUS41 KCTP 280703
RWRCTP

REGIONAL WEATHER ROUNDUP
NATIONAL WEATHER SERVICE STATE COLLEGE PA
300 AM EDT FRI JUL 28 2017

Note: "fair" indicates few or no clouds below 12,000 feet with no
significant weather and/or obstructions to visibility.

* = STATION THAT DOES NOT REPORT PRECIPITATION /E.G. RAIN...SNOW...ETC/
    THUNDER OR FOG.

PAZ002>004-007>009-013>016-020>023-029>032-280800-
WESTERN PENNSYLVANIA

CITY           SKY/WX    TMP DP  RH WIND       PRES   REMARKS
ERIE           CLOUDY    65  63  93 CALM      29.89R
MEADVILLE      CLOUDY    63  63 100 NE6       29.90F
FRANKLIN*      CLOUDY    64  63  94 NE3       29.91S
NEW CASTLE     PTSUNNY   67  66  97 CALM      29.89S
BEAVER COUNTY  NOT AVBL
BUTLER*        MOCLDY    70  66  88 CALM      29.89S
PITTSBURGH INT MOCLDY    70  70 100 CALM      29.88F FOG
PITTSBURGH     CLOUDY    70  67  90 S3        29.88F
INDIANA*       CLOUDY    72  70  94 CALM      29.92F
LATROBE        CLOUDY    70  70 100 CALM      29.90F
WASHINGTON CO* PTCLDY    66  64  94 CALM      29.89S
$$

PAZ004>006-010>012-017>019-024>028-033>037-041-042-045-046-049>053-280800-
CENTRAL PENNSYLVANIA

CITY           SKY/WX    TMP DP  RH WIND       PRES   REMARKS
BRADFORD       CLEAR     63  63 100 CALM      29.94S
DUBOIS         CLEAR     62  59  90 SE3       29.91S
CLEARFIELD     CLEAR     61  60  97 CALM      29.91F
JOHNSTOWN      LGT RAIN  68  66  93 SW3       29.93F
ALTOONA        CLOUDY    66  66 100 CALM      29.91F
STATE COLLEGE  PTCLDY    67  66  94 CALM      29.89S
WILLIAMSPORT   PTCLDY    67  66  97 CALM      29.86S
SELINSGROVE    CLEAR     65  65 100 CALM      29.87S FOG
FT INDIANTOWN  CLOUDY    71  70  99 CALM      29.86F FOG
CAPITAL CITY   CLOUDY    74  70  87 SE3       29.84F FOG
HARRISBURG     CLOUDY    73  72  96 CALM      29.84F FOG
YORK           CLOUDY    74  74 100 CALM      29.85F FOG
$$

PAZ038>040-043-044-047-048-054-055-060>062-067>071-280800-
EASTERN PENNSYLVANIA

CITY           SKY/WX    TMP DP  RH WIND       PRES   REMARKS
SCRANTON       PTCLDY    66  65  96 E5        29.89S
MOUNT POCONO   FOG       61  61 100 N3        29.92F VSB 1/4
ALLENTOWN      FOG       66  64  93 CALM      29.86F VSB 1/4
QUAKERTOWN*    CLOUDY    66  66 100 CALM      29.87F
READING        PTCLDY    68  68 100 SW3       29.84F
LANCASTER      MOCLDY    72  72 100 CALM      29.84F FOG
COATESVILLE    CLOUDY    72  72 100 CALM      29.87F FOG
POTTSTOWN      FOG       68  68 100 CALM      29.87F VSB 1
BLUE BELL      MOCLDY    66  66 100 CALM      29.86F
DOYLESTOWN       N/A    N/A N/A N/A MISG      29.85F
WILLOW GROVE   NOT AVBL
NORTH PHILA    CLOUDY    72  69  90 E3        29.86F
PHILADELPHIA   PTCLDY    72  70  93 CALM      29.83F
$$




USA.gov is the U.S. government's official web portal to all federal, state and local government web resources and services.